{"data":{"norad_id":56077,"epoch":"2026-09-20T04:59:20.935680Z","epoch_age_seconds":43591,"freshness":"FRESH","line1":"1 56077U 23043AH  26263.20788120 -.00000051  00000+0 -16973-3 0  9990","line2":"2 56077  87.8988 240.2557 0002180  86.0601 274.0778 13.15547627168902","mean_motion":13.15547627,"eccentricity":0.000218,"inclination_deg":87.8988,"raan_deg":240.2557,"arg_perigee_deg":86.0601,"mean_anomaly_deg":274.0778,"bstar":-0.00016973,"rev_number":16890,"period_min":109.46011915082,"perigee_km":1200.1218922157,"apogee_km":1203.4267335481,"semimajor_km":7579.9113128819,"source":"CELESTRAK","updated_at":"2026-09-20T09:00:44.793048Z"}}